Spokane Felts, WA

12:00 PM PDT on April 29, 2017 (GMT -0700)
Felts

Weather History for KSFF - September, 2013

Change the Weather History Date:

Tuesday, September 24, 2013

  Actual Average Record
Temperature  
Mean Temperature 56 °F 57 °F  
Max Temperature 63 °F 71 °F 94 °F (2011)
Min Temperature 49 °F 44 °F 32 °F (2000)
Degree Days  
Heating Degree Days 9 8  
Month to date heating degree days 53 110  
Since 1 July heating degree days 58 156  
Cooling Degree Days 0 0  
Month to date cooling degree days 101 29  
Year to date cooling degree days 704 405  
Growing Degree Days 6 (Base 50)    
Moisture  
Dew Point 44 °F    
Average Humidity 63    
Maximum Humidity 89    
Minimum Humidity 36    
Precipitation  
Precipitation 0.13 in 0.03 in 0.13 in (2013)
Month to date precipitation 1.21 0.64  
Year to date precipitation 10.89 11.38  
Sea Level Pressure  
Sea Level Pressure 29.83 in    
Wind  
Wind Speed 5 mph (SW)    
Max Wind Speed 14 mph    
Max Gust Speed 20 mph    
Visibility 9 miles    
Events Rain    
T = Trace of Precipitation, MM = Missing Value Source: NWS Daily Summary

Daily Weather History Graph

Daily Weather History Graph

Search for Another Location

Airport or City:

Trip Planner

Search our weather history database for the weather conditions in past years. The results will help you decide how hot, cold, wet, or windy it might be!

Date:

Astronomy

Sep. 24, 2013 Rise Set
Actual Time 6:39 AM PDT 6:42 PM PDT
Civil Twilight 6:08 AM PDT 7:12 PM PDT
Nautical Twilight 5:32 AM PDT 7:48 PM PDT
Astronomical Twilight 4:55 AM PDT 8:25 PM PDT
Moon 9:41 PM PDT (9/24) 12:19 PM PDT (9/24)
Length of Visible Light 13h 04m
Length of Day
12h 03m
Waning Gibbous, 72% of the Moon is Illuminated
Sep 24
Waning Gibbous
Sep 26
Last Quarter
Oct 4
New
Oct 11
First Quarter
Oct 18
Full

Hourly Weather History & Observations

Time (PDT) Temp. Dew Point Humidity Pressure Visibility Wind Dir Wind Speed Gust Speed Precip Events Conditions
12:53 AM 54.0 °F 43.0 °F 66% 29.91 in 10.0 mi WSW 5.8 mph - N/A   Mostly Cloudy
1:53 AM 54.0 °F 44.1 °F 69% 29.91 in 10.0 mi Calm Calm - N/A   Overcast
2:53 AM 54.0 °F 44.1 °F 69% 29.89 in 10.0 mi SSW 5.8 mph - N/A   Overcast
3:53 AM 53.1 °F 45.0 °F 74% 29.89 in 10.0 mi Calm Calm - 0.00 in   Overcast
4:53 AM 53.1 °F 45.0 °F 74% 29.88 in 10.0 mi South 4.6 mph - N/A   Overcast
5:53 AM 52.0 °F 46.0 °F 80% 29.88 in 7.0 mi SW 5.8 mph - 0.00 in Rain Light Rain
6:53 AM 51.1 °F 46.9 °F 86% 29.88 in 10.0 mi Calm Calm - 0.03 in Rain Light Rain
7:25 AM 51.8 °F 46.4 °F 82% 29.87 in 10.0 mi Calm Calm - 0.00 in Rain Light Rain
7:53 AM 52.0 °F 48.0 °F 86% 29.86 in 10.0 mi Calm Calm - 0.01 in Rain Light Rain
8:02 AM 51.8 °F 48.2 °F 88% 29.87 in 10.0 mi South 3.5 mph - N/A   Overcast
8:53 AM 52.0 °F 48.0 °F 86% 29.86 in 5.0 mi SW 3.5 mph - 0.02 in Rain Light Rain
9:24 AM 51.8 °F 48.2 °F 88% 29.86 in 2.0 mi Calm Calm - 0.01 in Rain Light Rain
9:53 AM 51.1 °F 48.9 °F 92% 29.85 in 2.0 mi WSW 5.8 mph - 0.05 in Rain Light Rain
10:23 AM 51.8 °F 50.0 °F 94% 29.85 in 6.0 mi WSW 5.8 mph - 0.01 in   Overcast
10:53 AM 53.1 °F 48.9 °F 86% 29.84 in 10.0 mi WSW 6.9 mph - 0.02 in Rain Light Rain
11:53 AM 55.0 °F 48.0 °F 77% 29.82 in 10.0 mi SSW 9.2 mph - 0.00 in Rain Light Rain
12:00 PM 55.4 °F 46.4 °F 72% 29.82 in 10.0 mi SSW 9.2 mph - 0.00 in Rain Light Rain
12:16 PM 55.4 °F 46.4 °F 72% 29.82 in 10.0 mi SW 10.4 mph - 0.00 in Rain Light Rain
12:53 PM 57.0 °F 46.9 °F 69% 29.80 in 10.0 mi SW 10.4 mph - 0.00 in Rain Light Rain
1:03 PM 57.2 °F 46.4 °F 67% 29.80 in 10.0 mi SW 9.2 mph - 0.00 in   Mostly Cloudy
1:53 PM 59.0 °F 44.1 °F 58% 29.78 in 10.0 mi SSW 9.2 mph - 0.00 in   Mostly Cloudy
2:00 PM 59.0 °F 44.6 °F 59% 29.79 in 10.0 mi South 9.2 mph - N/A   Partly Cloudy
2:02 PM 59.0 °F 44.6 °F 59% 29.79 in 10.0 mi SSW 10.4 mph - N/A   Mostly Cloudy
2:53 PM 61.0 °F 41.0 °F 48% 29.76 in 10.0 mi West 4.6 mph - N/A   Mostly Cloudy
3:00 PM 62.6 °F 41.0 °F 45% 29.78 in 10.0 mi Variable 6.9 mph - N/A   Mostly Cloudy
3:53 PM 62.1 °F 39.0 °F 43% 29.75 in 10.0 mi SW 10.4 mph - N/A   Mostly Cloudy
4:53 PM 60.1 °F 34.0 °F 38% 29.75 in 10.0 mi West 6.9 mph - N/A   Mostly Cloudy
5:53 PM 59.0 °F 35.1 °F 41% 29.76 in 10.0 mi WSW 8.1 mph - N/A   Scattered Clouds
6:53 PM 57.0 °F 35.1 °F 44% 29.77 in 10.0 mi WSW 8.1 mph - N/A   Clear
7:53 PM 55.0 °F 39.9 °F 57% 29.79 in 10.0 mi NW 4.6 mph - N/A   Partly Cloudy
8:53 PM 53.1 °F 44.1 °F 71% 29.80 in 10.0 mi Calm Calm - N/A   Clear
9:53 PM 52.0 °F 39.0 °F 61% 29.81 in 10.0 mi WSW 6.9 mph - N/A   Scattered Clouds
10:53 PM 52.0 °F 43.0 °F 71% 29.79 in 10.0 mi WSW 3.5 mph - N/A   Mostly Cloudy
11:53 PM 51.1 °F 43.0 °F 74% 29.79 in 10.0 mi Calm Calm - N/A   Partly Cloudy